SCP
0 0 0 -0 -0 -0 -0 -0 -0 -0 0 0 0 -0 0 0 -0 0 0 0 0 0 0 0 0 0 0 0 0 0 0 0 0 0 0 0 0 0 0 0 0 0 0
0 0 0 -0 -0 -0 -0 -0 -0 -0 -0 0 0 -0 -0 -0 -0 -0 -0 0 0 0 0 0 0 0 0 0 0 0 0 0 0 0 0 0 0 0 0 0 0 0 0
0 0 0 0 -0 -0 -0 0 0 -0 0 0 0 -0 -0 -0 -0 -0 -0 -0 -0 -0 -0 -0 0 0 0 0 0 0 0 0 0 0 0 0 0 0 0 0 0 0 0
0 0 0 0 0 0 -0 0 0 -0 -0 -0 -0 -0 -0 -0 -0 -0 -0 -0 -0 -0 -0 -0 0 0 0 0 0 0 0 0 0 0 0 0 0 0 0 0 0 0 0
0 0 0 0 -0 -0 -0 -0 -0 -0 -0 -0 -0 -0 -0 -0 -0 -0 -0 -0 -0 -0 -0 -0 -0 0 0 0 0 0 0 0 0 0 -0 0 0 0 0 0 0 0 0
0 0 0 -0 -0 -0 -0 -0 -0 -0 -0 -0 -0 -0 -0 -0 -0 -0 -0 -0 -0 -0 -0 -0 -0 0 0 0 0 0 0 0 0 0 0 0 0 0 0 0 0 0 0
0 0 -0 -0 -0 -0 -0 -0 -0 -0 -0 -0 -0 -0 -0 -0 -0 -0 -0 -0 -0 -0 -0 -0 -0 0 0 0 0 0 0 0 0 0 0 0 0 0 0 0 0 0 0
-0 -0 0 -0 -0 -0 -0 -0 -0 -0 -0 -0 0 -0 -0 -0 -0 -0 -0 -0 -0 -0 -0 -0 0 0 0 0 0 0 0 0 0 0 0 0 0 0 0 0 0 0 0
0 0 0 0 -0 -0 -0 -0 -0 -0 -0 -0 -0 0 0 0 0 -0 -0 -0 -0 0 0 0 0 0 0 0 0 0 0 0 0 0 0 0 0 0 0 0 0 0 0
0 0 0 0 0 0 0 0 0 0 0 0 0 0 0 0 0 0 0 0 -0 -0 0 0 0 0 0 0 0 0 0 0 0 0 0 0 0 0 0 0 0 0 0
0 0 0 0 0 0 0 0 0 0 0 0 0 0 0 0 0 0 0 0 0 0 0 0 0 0 0 0 0 0 0 0 0 0 0 0 0 0 0 0 0 0 0
0 0 0 0 0 0 0 0 0 0 0 0 0 0 0 0 0 0 0 0 0 0 0 0 0 0 0 0 0 0 0 0 0 0 0 0 0 0 0 0 0 0 0
0 0 0 0 0 0 0 0 0 0 0 0 0 0 0 0 0 0 0 0 0 0 0 0 0 0 0 0 0 0 0 0 0 0 0 0 0 0 0 0 0 0 0
0 0 0 0 0 0 0 0 0 0 0 0 0 0 0 0 0 0 0 0 0 0 0 0 0 0 0 0 0 0 0 0 0 0 0 0 0 0 0 0 0 0 0
0 0 0 0 0 0 0 0 0 0 0 0 0 0 0 0 0 0 0 0 0 0 0 0 0 0 0 0 0 0 0 0 0 0 0 0 0 0 0 0 0 0 0
0 0 0 0 0 0 0 0 0 0 0 0 0 0 0 0 0 0 0 0 0 0 0 0 0 0 0 0 0 0 0 0 0 0 0 0 0 0 0 0 0 0 0
0 0 0 0 0 0 0 0 0 0 0 0 0 0 0 0 0 0 0 0 0 0 0 0 0 0 0 0 0 0 0 0 0 0 0 0 0 0 0 0 0 0 0
0 0 0 0 0 0 0 0 0 0 0 0 0 0 0 0 0 0 0 0 0 0 0 0 0 0 0 0 0 0 0 0 0 0 0 0 0 0 0 0 0 0 0
0 0 0 0 0 0 0 0 0 0 0 0 0 0 0 0 0 0 0 0 0 0 0 0 0 0 0 0 0 0 0 0 0 0 0 0 0 0 0 0 0 0 0
0 0 0 0 0 0 0 0 0 0 0 0 0 0 0 0 0 0 0 0 0 0 0 0 0 0 0 0 0 0 0 0 0 0 0 0 0 0 0 0 0 0 0
0 0 0 0 0 0 0 0 0 0 0 0 0 0 0 0 0 0 0 0 0 0 0 0 0 0 0 0 0 0 0 0 0 0 0 0 0 0 0 0 0 0 0
0 0 0 0 0 0 0 0 0 0 0 0 0 0 0 0 0 0 0 0 0 0 0 0 0 0 0 0 0 0 0 0 0 0 0 0 0 0 0 0 0 0 0
0 0 0 0 0 0 0 0 0 0 0 0 0 0 0 0 0 0 0 0 0 0 0 0 0 0 0 0 0 0 0 0 0 0 0 0 0 0 0 0 0 0 0
0 0 0 0 0 0 0 0 0 0 0 0 0 0 0 0 0 0 0 0 0 0 0 0 0 0 0 0 0 0 0 0 0 0 0 0 0 0 0 0 0 0 0
0 0 0 0 0 0 0 0 0 0 0 0 0 0 0 0 0 0 0 0 0 0 0 0 0 0 0 0 0 0 0 0 0 0 0 0 0 0 0 0 0 0 0
0 0 0 0 0 0 0 0 0 0 0 0 0 0 0 0 0 0 0 0 0 0 0 0 0 0 0 0 0 0 0 0 0 0 0 0 0 0 0 0 0 0 0
Wind_Speed_500mb
29 31 33 27 24 20 14 11 19 26 30 35 37 32 26 25 23 21 23 31 35 34 37 36 36 40 37 38 39 39 37 33 34 36 38 39 37 39 41 39 39 38 35
32 34 31 23 20 17 15 14 19 23 27 33 36 30 22 25 24 25 26 31 34 34 36 37 38 39 37 38 34 33 37 33 30 31 37 38 37 34 35 33 31 35 32
36 35 31 23 19 18 15 14 18 21 24 33 31 33 18 21 25 25 27 30 33 34 35 37 37 36 33 33 31 27 31 31 24 30 37 36 34 32 32 33 33 28 28
35 36 32 26 20 20 16 13 15 21 23 26 30 32 24 16 18 25 26 29 33 34 35 36 34 31 30 32 28 23 21 21 20 26 35 32 28 28 28 27 30 31 31
35 36 32 27 22 19 18 15 14 18 21 27 31 33 30 18 20 27 26 29 32 32 33 33 31 28 27 27 25 26 19 19 22 29 30 24 25 22 27 26 28 30 27
35 36 34 29 24 20 18 16 17 19 20 21 24 32 29 28 23 20 24 27 28 30 32 32 30 27 25 25 20 22 28 24 22 24 25 23 22 21 23 24 23 22 22
33 37 33 30 25 22 20 17 16 18 21 20 21 27 29 24 28 22 21 20 25 29 29 29 27 24 23 20 16 17 18 20 17 18 20 22 21 14 17 18 18 18 20
31 37 37 33 28 23 23 22 19 18 20 17 17 19 25 24 28 24 19 19 22 27 27 27 26 23 22 21 16 13 10 14 13 11 12 13 14 11 12 11 14 16 18
33 34 37 37 33 30 27 25 22 21 20 19 19 18 23 25 29 29 24 23 24 23 25 24 24 23 21 20 18 9 7 10 8 8 6 7 10 10 6 6 10 13 14
31 33 36 40 39 37 34 31 27 23 22 21 19 19 20 26 27 32 28 24 26 24 23 22 22 22 20 19 16 12 5 5 6 6 4 4 5 6 6 5 6 9 9
39 38 38 44 44 41 37 36 33 29 26 25 23 22 23 25 25 29 28 27 25 30 26 24 22 22 21 20 18 14 9 5 3 1 2 3 3 4 4 5 4 5 4
43 42 40 45 47 45 43 41 39 37 34 31 30 28 27 27 28 28 28 28 30 27 30 27 24 23 23 23 22 19 15 11 8 6 7 6 7 6 6 8 6 5 2
36 39 41 43 49 49 49 48 47 45 41 39 36 33 31 33 35 35 34 33 31 31 30 31 29 27 25 25 25 23 19 18 14 11 11 12 11 11 11 11 10 5 7
42 41 40 44 46 49 50 52 52 52 49 46 43 38 39 38 41 41 39 36 33 30 34 34 33 32 31 29 28 26 23 22 20 17 15 14 16 15 15 15 13 12 10
40 42 44 47 49 52 51 51 52 55 56 52 49 46 43 45 46 45 43 41 39 37 39 39 38 38 36 34 32 32 28 26 25 24 21 19 19 21 20 20 18 15 14
43 43 45 48 51 57 57 55 56 55 54 58 57 53 49 51 52 51 49 46 46 44 43 43 43 41 40 39 37 36 33 31 31 30 28 25 24 24 24 25 23 19 16
52 47 47 46 50 55 61 62 62 62 59 59 60 58 54 57 57 57 54 52 48 47 46 47 48 48 47 46 45 41 39 37 37 35 32 30 29 27 27 27 26 25 21
54 57 52 50 53 54 57 62 66 67 65 63 62 63 60 60 62 61 60 58 52 51 51 53 52 53 53 50 48 44 43 42 40 41 40 36 34 31 28 29 29 29 28
65 59 61 58 58 58 59 61 67 70 70 68 67 68 66 64 65 66 65 64 59 58 60 58 57 56 56 53 51 47 47 46 44 44 45 44 38 36 34 30 30 30 31
58 61 58 60 60 60 64 66 67 72 72 74 74 73 72 70 70 69 70 70 66 67 67 64 63 59 60 55 54 53 51 51 51 52 50 47 46 44 42 36 36 36 35
44 51 59 60 61 64 70 74 78 77 76 80 81 80 77 75 77 76 75 75 73 75 74 70 67 66 67 60 57 61 62 61 62 61 58 55 53 51 49 46 42 40 40
57 59 58 66 67 66 68 70 75 76 76 80 84 86 82 83 84 83 81 81 80 80 82 81 77 76 74 68 68 64 61 66 75 69 63 62 57 54 56 55 50 47 44
60 54 56 57 70 72 68 75 78 82 83 82 85 88 89 91 90 90 88 87 87 86 89 88 85 85 85 79 76 66 27 43 42 51 61 63 63 60 58 55 55 53 51
55 63 69 64 58 67 72 81 85 82 83 79 78 82 86 91 94 97 94 91 92 94 94 94 93 93 89 92 83 89 89 66 36 25 40 49 51 58 58 58 55 54 53
36 34 38 44 54 62 79 86 86 91 89 85 87 84 83 88 91 93 99 99 98 99 101 99 101 102 100 98 101 94 93 95 92 75 57 53 55 61 58 59 57 55 54
9 16 25 29 34 42 53 68 87 92 86 90 90 91 86 86 90 93 95 95 98 104 106 105 104 109 107 105 105 106 105 95 102 101 94 95 82 77 68 64 63 60 59
Wind_Direction_500mb
177 159 152 146 137 123 120 107 116 122 122 129 128 114 121 124 124 115 111 121 110 104 102 108 103 101 98 93 91 91 91 88 90 90 89 91 90 87 87 82 78 78 65
166 163 164 154 144 134 134 126 124 128 131 138 127 115 116 107 110 119 122 117 111 104 105 107 107 103 99 94 88 82 84 81 85 92 94 91 83 84 91 89 87 84 82
172 166 166 162 155 148 144 138 135 135 141 139 129 117 121 119 118 120 120 113 112 111 110 109 109 108 98 87 89 91 76 68 69 92 88 85 82 77 80 78 78 80 84
178 169 169 167 161 153 149 146 141 138 145 147 137 127 127 129 123 125 123 119 118 117 114 114 114 109 98 91 88 79 66 63 65 91 94 89 82 83 82 74 69 62 67
183 174 173 170 165 163 160 156 148 145 150 145 136 137 136 138 134 131 129 129 123 122 121 121 120 114 106 102 98 94 81 72 90 87 85 87 78 75 77 76 77 76 72
182 179 175 173 167 167 169 167 163 159 160 154 158 145 150 165 131 131 135 135 129 129 128 128 127 122 115 113 105 102 100 79 87 89 82 84 78 71 76 74 75 76 67
182 180 180 178 178 174 176 178 176 170 163 159 159 161 158 159 151 147 150 143 137 138 137 136 134 131 125 120 108 100 89 79 95 99 85 81 78 82 75 77 73 69 59
183 180 184 184 185 187 186 186 186 178 168 166 169 175 168 162 158 164 166 158 151 147 147 145 144 141 137 132 127 117 102 82 96 100 90 81 79 71 62 70 60 55 57
187 186 189 193 194 194 195 198 197 184 182 184 184 184 186 176 171 172 180 171 166 158 156 155 154 153 151 151 154 154 117 110 96 87 74 71 90 97 86 68 27 52 60
206 202 200 201 203 201 200 200 204 201 194 196 196 194 201 197 187 189 183 181 176 171 169 166 164 165 167 169 172 180 163 125 109 87 69 49 48 86 81 20 29 41 56
216 215 212 209 209 210 209 207 207 212 210 200 200 206 207 213 210 207 207 205 191 185 185 182 180 178 181 185 191 196 222 214 184 252 303 332 351 9 13 15 28 358 39
216 216 220 215 214 216 216 215 215 217 218 215 211 214 216 219 221 221 220 218 211 203 194 195 194 193 195 197 202 210 229 236 233 238 264 275 293 300 308 320 333 324 335
229 228 224 220 220 223 223 221 221 223 224 223 222 221 224 223 224 225 226 227 223 215 205 205 207 208 209 211 215 219 227 244 245 249 255 268 275 283 290 297 307 304 286
232 235 233 229 227 228 231 230 228 228 227 228 230 228 229 229 229 229 230 230 230 224 221 216 216 217 220 221 224 230 230 242 254 254 253 262 272 273 274 276 277 286 258
238 241 241 237 237 235 235 236 238 234 234 234 235 235 235 238 236 235 233 231 231 229 227 226 224 226 228 230 232 235 239 240 252 258 260 263 267 272 269 267 263 261 254
246 247 244 243 244 241 242 243 246 245 242 240 239 240 240 243 241 240 239 237 236 235 233 233 233 233 236 236 238 241 244 245 247 254 260 261 264 267 267 265 261 254 249
257 257 249 250 247 247 248 248 247 250 250 247 244 243 242 242 244 244 245 244 244 242 239 237 235 233 235 236 239 242 245 248 249 251 257 260 260 264 264 261 257 254 242
259 253 253 250 251 250 250 254 251 251 250 251 250 247 244 243 244 246 248 248 247 245 242 241 239 238 239 241 245 245 246 248 249 252 253 255 259 259 261 259 254 250 246
256 256 255 251 251 257 255 253 254 254 253 252 254 252 250 247 247 247 249 252 250 248 244 243 243 243 245 247 249 249 250 251 253 253 255 256 256 257 256 254 252 249 242
252 256 256 252 254 257 257 253 252 253 254 254 253 253 252 252 253 250 251 252 251 250 247 245 246 245 250 251 253 255 255 256 256 253 251 254 256 255 252 253 252 249 244
258 256 253 250 254 251 249 250 248 252 252 251 252 252 252 252 253 253 253 254 252 250 251 251 251 249 248 247 250 254 256 255 252 252 253 251 253 256 255 252 253 251 243
264 263 258 255 256 255 254 257 258 261 260 260 258 256 257 255 253 252 252 254 254 251 250 251 249 250 250 246 244 248 257 261 254 251 253 253 253 254 255 253 252 251 246
257 262 264 262 257 258 261 257 253 253 255 258 259 259 256 255 256 256 254 254 255 253 252 253 252 250 251 250 242 238 232 243 261 264 256 255 255 253 251 250 249 250 248
259 259 259 260 262 260 260 259 258 260 261 270 272 269 264 261 258 258 256 255 256 256 253 254 255 253 250 252 247 244 241 249 259 268 259 255 252 248 248 248 248 248 247
280 272 270 267 264 260 256 258 262 261 265 270 268 269 268 267 265 262 261 258 255 255 256 255 256 254 252 251 254 251 249 247 248 253 263 256 252 256 252 253 251 248 246
199 241 253 259 261 256 254 259 261 264 268 266 267 269 272 271 269 268 265 263 261 257 257 258 257 258 257 255 254 255 252 248 250 247 250 260 258 262 263 262 257 254 249
Wind_Speed_850mb
29 31 33 27 24 20 14 11 19 26 30 35 37 32 26 25 23 21 23 31 35 34 37 36 36 40 37 38 39 39 37 33 34 36 38 39 37 39 41 39 39 38 35
32 34 31 23 20 17 15 14 19 23 27 33 36 30 22 25 24 25 26 31 34 34 36 37 38 39 37 38 34 33 37 33 30 31 37 38 37 34 35 33 31 35 32
36 35 31 23 19 18 15 14 18 21 24 33 31 33 18 21 25 25 27 30 33 34 35 37 37 36 33 33 31 27 31 31 24 30 37 36 34 32 32 33 33 28 28
35 36 32 26 20 20 16 13 15 21 23 26 30 32 24 16 18 25 26 29 33 34 35 36 34 31 30 32 28 23 21 21 20 26 35 32 28 28 28 27 30 31 31
35 36 32 27 22 19 18 15 14 18 21 27 31 33 30 18 20 27 26 29 32 32 33 33 31 28 27 27 25 26 19 19 22 29 30 24 25 22 27 26 28 30 27
35 36 34 29 24 20 18 16 17 19 20 21 24 32 29 28 23 20 24 27 28 30 32 32 30 27 25 25 20 22 28 24 22 24 25 23 22 21 23 24 23 22 22
33 37 33 30 25 22 20 17 16 18 21 20 21 27 29 24 28 22 21 20 25 29 29 29 27 24 23 20 16 17 18 20 17 18 20 22 21 14 17 18 18 18 20
31 37 37 33 28 23 23 22 19 18 20 17 17 19 25 24 28 24 19 19 22 27 27 27 26 23 22 21 16 13 10 14 13 11 12 13 14 11 12 11 14 16 18
33 34 37 37 33 30 27 25 22 21 20 19 19 18 23 25 29 29 24 23 24 23 25 24 24 23 21 20 18 9 7 10 8 8 6 7 10 10 6 6 10 13 14
31 33 36 40 39 37 34 31 27 23 22 21 19 19 20 26 27 32 28 24 26 24 23 22 22 22 20 19 16 12 5 5 6 6 4 4 5 6 6 5 6 9 9
39 38 38 44 44 41 37 36 33 29 26 25 23 22 23 25 25 29 28 27 25 30 26 24 22 22 21 20 18 14 9 5 3 1 2 3 3 4 4 5 4 5 4
43 42 40 45 47 45 43 41 39 37 34 31 30 28 27 27 28 28 28 28 30 27 30 27 24 23 23 23 22 19 15 11 8 6 7 6 7 6 6 8 6 5 2
36 39 41 43 49 49 49 48 47 45 41 39 36 33 31 33 35 35 34 33 31 31 30 31 29 27 25 25 25 23 19 18 14 11 11 12 11 11 11 11 10 5 7
42 41 40 44 46 49 50 52 52 52 49 46 43 38 39 38 41 41 39 36 33 30 34 34 33 32 31 29 28 26 23 22 20 17 15 14 16 15 15 15 13 12 10
40 42 44 47 49 52 51 51 52 55 56 52 49 46 43 45 46 45 43 41 39 37 39 39 38 38 36 34 32 32 28 26 25 24 21 19 19 21 20 20 18 15 14
43 43 45 48 51 57 57 55 56 55 54 58 57 53 49 51 52 51 49 46 46 44 43 43 43 41 40 39 37 36 33 31 31 30 28 25 24 24 24 25 23 19 16
52 47 47 46 50 55 61 62 62 62 59 59 60 58 54 57 57 57 54 52 48 47 46 47 48 48 47 46 45 41 39 37 37 35 32 30 29 27 27 27 26 25 21
54 57 52 50 53 54 57 62 66 67 65 63 62 63 60 60 62 61 60 58 52 51 51 53 52 53 53 50 48 44 43 42 40 41 40 36 34 31 28 29 29 29 28
65 59 61 58 58 58 59 61 67 70 70 68 67 68 66 64 65 66 65 64 59 58 60 58 57 56 56 53 51 47 47 46 44 44 45 44 38 36 34 30 30 30 31
58 61 58 60 60 60 64 66 67 72 72 74 74 73 72 70 70 69 70 70 66 67 67 64 63 59 60 55 54 53 51 51 51 52 50 47 46 44 42 36 36 36 35
44 51 59 60 61 64 70 74 78 77 76 80 81 80 77 75 77 76 75 75 73 75 74 70 67 66 67 60 57 61 62 61 62 61 58 55 53 51 49 46 42 40 40
57 59 58 66 67 66 68 70 75 76 76 80 84 86 82 83 84 83 81 81 80 80 82 81 77 76 74 68 68 64 61 66 75 69 63 62 57 54 56 55 50 47 44
60 54 56 57 70 72 68 75 78 82 83 82 85 88 89 91 90 90 88 87 87 86 89 88 85 85 85 79 76 66 27 43 42 51 61 63 63 60 58 55 55 53 51
55 63 69 64 58 67 72 81 85 82 83 79 78 82 86 91 94 97 94 91 92 94 94 94 93 93 89 92 83 89 89 66 36 25 40 49 51 58 58 58 55 54 53
36 34 38 44 54 62 79 86 86 91 89 85 87 84 83 88 91 93 99 99 98 99 101 99 101 102 100 98 101 94 93 95 92 75 57 53 55 61 58 59 57 55 54
9 16 25 29 34 42 53 68 87 92 86 90 90 91 86 86 90 93 95 95 98 104 106 105 104 109 107 105 105 106 105 95 102 101 94 95 82 77 68 64 63 60 59
Wind_Direction_850mb
177 159 152 146 137 123 120 107 116 122 122 129 128 114 121 124 124 115 111 121 110 104 102 108 103 101 98 93 91 91 91 88 90 90 89 91 90 87 87 82 78 78 65
166 163 164 154 144 134 134 126 124 128 131 138 127 115 116 107 110 119 122 117 111 104 105 107 107 103 99 94 88 82 84 81 85 92 94 91 83 84 91 89 87 84 82
172 166 166 162 155 148 144 138 135 135 141 139 129 117 121 119 118 120 120 113 112 111 110 109 109 108 98 87 89 91 76 68 69 92 88 85 82 77 80 78 78 80 84
178 169 169 167 161 153 149 146 141 138 145 147 137 127 127 129 123 125 123 119 118 117 114 114 114 109 98 91 88 79 66 63 65 91 94 89 82 83 82 74 69 62 67
183 174 173 170 165 163 160 156 148 145 150 145 136 137 136 138 134 131 129 129 123 122 121 121 120 114 106 102 98 94 81 72 90 87 85 87 78 75 77 76 77 76 72
182 179 175 173 167 167 169 167 163 159 160 154 158 145 150 165 131 131 135 135 129 129 128 128 127 122 115 113 105 102 100 79 87 89 82 84 78 71 76 74 75 76 67
182 180 180 178 178 174 176 178 176 170 163 159 159 161 158 159 151 147 150 143 137 138 137 136 134 131 125 120 108 100 89 79 95 99 85 81 78 82 75 77 73 69 59
183 180 184 184 185 187 186 186 186 178 168 166 169 175 168 162 158 164 166 158 151 147 147 145 144 141 137 132 127 117 102 82 96 100 90 81 79 71 62 70 60 55 57
187 186 189 193 194 194 195 198 197 184 182 184 184 184 186 176 171 172 180 171 166 158 156 155 154 153 151 151 154 154 117 110 96 87 74 71 90 97 86 68 27 52 60
206 202 200 201 203 201 200 200 204 201 194 196 196 194 201 197 187 189 183 181 176 171 169 166 164 165 167 169 172 180 163 125 109 87 69 49 48 86 81 20 29 41 56
216 215 212 209 209 210 209 207 207 212 210 200 200 206 207 213 210 207 207 205 191 185 185 182 180 178 181 185 191 196 222 214 184 252 303 332 351 9 13 15 28 358 39
216 216 220 215 214 216 216 215 215 217 218 215 211 214 216 219 221 221 220 218 211 203 194 195 194 193 195 197 202 210 229 236 233 238 264 275 293 300 308 320 333 324 335
229 228 224 220 220 223 223 221 221 223 224 223 222 221 224 223 224 225 226 227 223 215 205 205 207 208 209 211 215 219 227 244 245 249 255 268 275 283 290 297 307 304 286
232 235 233 229 227 228 231 230 228 228 227 228 230 228 229 229 229 229 230 230 230 224 221 216 216 217 220 221 224 230 230 242 254 254 253 262 272 273 274 276 277 286 258
238 241 241 237 237 235 235 236 238 234 234 234 235 235 235 238 236 235 233 231 231 229 227 226 224 226 228 230 232 235 239 240 252 258 260 263 267 272 269 267 263 261 254
246 247 244 243 244 241 242 243 246 245 242 240 239 240 240 243 241 240 239 237 236 235 233 233 233 233 236 236 238 241 244 245 247 254 260 261 264 267 267 265 261 254 249
257 257 249 250 247 247 248 248 247 250 250 247 244 243 242 242 244 244 245 244 244 242 239 237 235 233 235 236 239 242 245 248 249 251 257 260 260 264 264 261 257 254 242
259 253 253 250 251 250 250 254 251 251 250 251 250 247 244 243 244 246 248 248 247 245 242 241 239 238 239 241 245 245 246 248 249 252 253 255 259 259 261 259 254 250 246
256 256 255 251 251 257 255 253 254 254 253 252 254 252 250 247 247 247 249 252 250 248 244 243 243 243 245 247 249 249 250 251 253 253 255 256 256 257 256 254 252 249 242
252 256 256 252 254 257 257 253 252 253 254 254 253 253 252 252 253 250 251 252 251 250 247 245 246 245 250 251 253 255 255 256 256 253 251 254 256 255 252 253 252 249 244
258 256 253 250 254 251 249 250 248 252 252 251 252 252 252 252 253 253 253 254 252 250 251 251 251 249 248 247 250 254 256 255 252 252 253 251 253 256 255 252 253 251 243
264 263 258 255 256 255 254 257 258 261 260 260 258 256 257 255 253 252 252 254 254 251 250 251 249 250 250 246 244 248 257 261 254 251 253 253 253 254 255 253 252 251 246
257 262 264 262 257 258 261 257 253 253 255 258 259 259 256 255 256 256 254 254 255 253 252 253 252 250 251 250 242 238 232 243 261 264 256 255 255 253 251 250 249 250 248
259 259 259 260 262 260 260 259 258 260 261 270 272 269 264 261 258 258 256 255 256 256 253 254 255 253 250 252 247 244 241 249 259 268 259 255 252 248 248 248 248 248 247
280 272 270 267 264 260 256 258 262 261 265 270 268 269 268 267 265 262 261 258 255 255 256 255 256 254 252 251 254 251 249 247 248 253 263 256 252 256 252 253 251 248 246
199 241 253 259 261 256 254 259 261 264 268 266 267 269 272 271 269 268 265 263 261 257 257 258 257 258 257 255 254 255 252 248 250 247 250 260 258 262 263 262 257 254 249